ARE4160 SKBO-SKBQ

Flight info

Callsign ARE4160
Flight time 1h 2m
Altitude 36000
Route OSUSU4R GIKPU UQ120 DIBAM UW9 ELB/N0382F240 W12 DARNI DARNI1A
Aircraft A320/M-SDE3FGHIRWY/LB1

Departure

Time 2026-04-26 00:20
Airport El Dorado International Airport (SKBO)

Arrival

Time 2026-04-26 01:22
Airport Ernesto Cortissoz International Airport (SKBQ)
Time Latitude Longitude Altitude Speed Heading
2026-04-25 23:55 4.69961 -74.14298 8367 ft 0 kts 37°
2026-04-26 00:09 4.69960 -74.14299 8339 ft 2 kts 37°
2026-04-26 00:09 4.69946 -74.14309 8366 ft 3 kts 37°
2026-04-26 00:10 4.69929 -74.14320 8366 ft 3 kts 12°
2026-04-26 00:10 4.69910 -74.14321 8366 ft 3 kts 341°
2026-04-26 00:10 4.69893 -74.14312 8366 ft 0 kts 308°
2026-04-26 00:10 4.69905 -74.14328 8366 ft 3 kts 307°
2026-04-26 00:11 4.69918 -74.14344 8366 ft 3 kts 307°
2026-04-26 00:11 4.69927 -74.14356 8366 ft 0 kts 307°
2026-04-26 00:13 4.69944 -74.14378 8366 ft 8 kts 308°
2026-04-26 00:13 4.69988 -74.14435 8366 ft 13 kts 304°
2026-04-26 00:13 4.70045 -74.14515 8366 ft 14 kts 307°
2026-04-26 00:13 4.70118 -74.14555 8366 ft 12 kts 350°
2026-04-26 00:14 4.70177 -74.14582 8366 ft 9 kts
2026-04-26 00:14 4.70231 -74.14550 8366 ft 11 kts 40°
2026-04-26 00:14 4.70306 -74.14494 8366 ft 16 kts 35°
2026-04-26 00:14 4.70392 -74.14427 8366 ft 15 kts 38°
2026-04-26 00:15 4.70481 -74.14404 8366 ft 13 kts 321°
2026-04-26 00:15 4.70535 -74.14471 8366 ft 12 kts 305°
2026-04-26 00:15 4.70589 -74.14540 8366 ft 15 kts 308°
2026-04-26 00:15 4.70656 -74.14630 8367 ft 16 kts 307°
2026-04-26 00:16 4.70723 -74.14717 8366 ft 15 kts 307°
2026-04-26 00:16 4.70785 -74.14800 8366 ft 14 kts 307°
2026-04-26 00:16 4.70842 -74.14877 8366 ft 13 kts 307°
2026-04-26 00:16 4.70895 -74.14948 8366 ft 13 kts 307°
2026-04-26 00:17 4.70951 -74.15021 8366 ft 13 kts 307°
2026-04-26 00:17 4.71009 -74.15097 8366 ft 14 kts 307°
2026-04-26 00:17 4.71068 -74.15176 8366 ft 14 kts 307°
2026-04-26 00:17 4.71128 -74.15256 8366 ft 15 kts 307°
2026-04-26 00:18 4.71190 -74.15338 8366 ft 15 kts 307°
2026-04-26 00:18 4.71260 -74.15347 8367 ft 11 kts 50°
2026-04-26 00:18 4.71293 -74.15261 8366 ft 17 kts 70°
2026-04-26 00:18 4.71310 -74.15167 8365 ft 11 kts 117°
2026-04-26 00:19 4.71302 -74.15157 8365 ft 0 kts 127°
2026-04-26 00:19 4.71280 -74.15128 8365 ft 28 kts 127°
2026-04-26 00:19 4.71003 -74.14761 8365 ft 101 kts 127°
2026-04-26 00:19 4.70458 -74.14041 8365 ft 157 kts 127°
2026-04-26 00:20 4.69718 -74.13063 8618 ft 178 kts 128°
2026-04-26 00:20 4.69000 -74.12107 9343 ft 174 kts 124°
2026-04-26 00:20 4.68648 -74.10935 9750 ft 185 kts 79°
2026-04-26 00:20 4.69270 -74.09755 9946 ft 208 kts 41°
2026-04-26 00:21 4.70618 -74.09106 10056 ft 225 kts 17°
2026-04-26 00:21 4.72155 -74.08618 10317 ft 235 kts 17°
2026-04-26 00:21 4.73736 -74.08112 10661 ft 243 kts 18°
2026-04-26 00:21 4.75354 -74.07586 11135 ft 246 kts 18°
2026-04-26 00:22 4.76983 -74.07051 11636 ft 247 kts 17°
2026-04-26 00:22 4.78618 -74.06512 12201 ft 247 kts 18°
2026-04-26 00:22 4.80261 -74.05964 12469 ft 261 kts 18°
2026-04-26 00:22 4.82042 -74.05365 12734 ft 275 kts 18°
2026-04-26 00:23 4.83923 -74.04728 13031 ft 292 kts 18°
2026-04-26 00:23 4.85901 -74.04058 13171 ft 315 kts 18°
2026-04-26 00:23 4.88074 -74.03324 13308 ft 337 kts 18°
2026-04-26 00:23 4.90356 -74.02554 13687 ft 349 kts 18°
2026-04-26 00:24 4.92675 -74.01770 14275 ft 353 kts 18°
2026-04-26 00:24 4.94980 -74.00988 14817 ft 357 kts 18°
2026-04-26 00:24 4.97377 -74.00171 15372 ft 361 kts 18°
2026-04-26 00:24 4.99731 -73.99367 15909 ft 363 kts 18°
2026-04-26 00:25 5.02139 -73.98560 16454 ft 367 kts 17°
2026-04-26 00:25 5.04606 -73.97846 16967 ft 370 kts 14°
2026-04-26 00:25 5.07113 -73.97213 17514 ft 373 kts 13°
2026-04-26 00:25 5.09653 -73.96614 18055 ft 376 kts 12°
2026-04-26 00:26 5.12216 -73.96022 18572 ft 379 kts 12°
2026-04-26 00:26 5.14797 -73.95418 18999 ft 383 kts 12°
2026-04-26 00:26 5.17389 -73.94797 19471 ft 385 kts 13°
2026-04-26 00:26 5.20003 -73.94157 19936 ft 387 kts 13°
2026-04-26 00:27 5.22623 -73.93505 20411 ft 389 kts 13°
2026-04-26 00:27 5.25264 -73.92845 20902 ft 392 kts 13°
2026-04-26 00:27 5.27913 -73.92182 21367 ft 394 kts 13°
2026-04-26 00:27 5.30581 -73.91512 21827 ft 396 kts 13°
2026-04-26 00:28 5.33259 -73.90841 22297 ft 399 kts 13°
2026-04-26 00:28 5.35958 -73.90165 22763 ft 401 kts 13°
2026-04-26 00:28 5.38681 -73.89487 23222 ft 404 kts 13°
2026-04-26 00:28 5.41412 -73.88809 23678 ft 406 kts 13°
2026-04-26 00:29 5.44157 -73.88126 24059 ft 408 kts 13°
2026-04-26 00:29 5.46929 -73.87436 24416 ft 411 kts 14°
2026-04-26 00:29 5.49705 -73.86744 24752 ft 414 kts 14°
2026-04-26 00:29 5.52513 -73.86042 25079 ft 416 kts 14°
2026-04-26 00:30 5.55344 -73.85362 25420 ft 419 kts 13°
2026-04-26 00:30 5.58167 -73.84752 25722 ft 421 kts 12°
2026-04-26 00:30 5.61092 -73.84163 26046 ft 424 kts 11°
2026-04-26 00:30 5.63968 -73.83600 26362 ft 426 kts 12°
2026-04-26 00:31 5.66888 -73.83029 26667 ft 429 kts 11°
2026-04-26 00:31 5.69824 -73.82446 26974 ft 431 kts 12°
2026-04-26 00:31 5.72785 -73.81846 27242 ft 434 kts 12°
2026-04-26 00:31 5.75757 -73.81234 27540 ft 436 kts 12°
2026-04-26 00:32 5.78740 -73.80616 27818 ft 439 kts 12°
2026-04-26 00:32 5.81742 -73.79995 28107 ft 441 kts 12°
2026-04-26 00:32 5.87785 -73.78749 28657 ft 446 kts 12°
2026-04-26 00:33 5.90831 -73.78121 28937 ft 448 kts 12°
2026-04-26 00:33 5.93895 -73.77487 29203 ft 450 kts 12°
2026-04-26 00:33 5.96968 -73.76853 29475 ft 452 kts 12°
2026-04-26 00:33 6.00054 -73.76218 29711 ft 454 kts 12°
2026-04-26 00:34 6.03114 -73.75587 29962 ft 456 kts 12°
2026-04-26 00:34 6.06229 -73.74945 30202 ft 458 kts 12°
2026-04-26 00:34 6.09366 -73.74299 30413 ft 460 kts 12°
2026-04-26 00:34 6.12509 -73.73650 30623 ft 462 kts 12°
2026-04-26 00:35 6.15672 -73.72999 30791 ft 464 kts 12°
2026-04-26 00:35 6.18840 -73.72348 30990 ft 465 kts 12°
2026-04-26 00:35 6.22020 -73.71694 31183 ft 467 kts 12°
2026-04-26 00:35 6.25204 -73.71036 31372 ft 468 kts 12°
2026-04-26 00:36 6.28402 -73.70373 31569 ft 469 kts 12°
2026-04-26 00:36 6.31599 -73.69715 31845 ft 468 kts 12°
2026-04-26 00:36 6.34800 -73.69059 32118 ft 468 kts 12°
2026-04-26 00:36 6.37993 -73.68406 32389 ft 468 kts 12°
2026-04-26 00:37 6.41134 -73.67761 32664 ft 467 kts 13°
2026-04-26 00:37 6.44328 -73.67099 32921 ft 467 kts 13°
2026-04-26 00:37 6.47515 -73.66439 33196 ft 467 kts 13°
2026-04-26 00:37 6.50707 -73.65780 33478 ft 467 kts 13°
2026-04-26 00:38 6.53887 -73.65124 33790 ft 466 kts 12°
2026-04-26 00:38 6.57034 -73.64474 34095 ft 464 kts 12°
2026-04-26 00:38 6.60194 -73.63822 34351 ft 464 kts 12°
2026-04-26 00:38 6.63357 -73.63171 34586 ft 464 kts 12°
2026-04-26 00:39 6.66527 -73.62520 34822 ft 463 kts 12°
2026-04-26 00:39 6.69676 -73.61871 35056 ft 463 kts 12°
2026-04-26 00:39 6.72836 -73.61217 35260 ft 463 kts 12°
2026-04-26 00:39 6.75980 -73.60567 35447 ft 462 kts 12°
2026-04-26 00:40 6.79143 -73.59913 35659 ft 462 kts 12°
2026-04-26 00:40 6.82297 -73.59260 35855 ft 462 kts 13°
2026-04-26 00:40 6.88581 -73.57961 35952 ft 458 kts 12°
2026-04-26 00:41 6.94804 -73.56682 35946 ft 456 kts 12°
2026-04-26 00:41 7.01084 -73.56204 35934 ft 457 kts 358°
2026-04-26 00:42 7.07444 -73.56514 35970 ft 457 kts 358°
2026-04-26 00:42 7.13814 -73.56823 35968 ft 458 kts 358°
2026-04-26 00:43 7.20184 -73.57127 35965 ft 458 kts 358°
2026-04-26 00:43 7.26549 -73.57436 35965 ft 458 kts 358°
2026-04-26 00:44 7.32920 -73.57735 35962 ft 458 kts 358°
2026-04-26 00:44 7.39237 -73.58028 35964 ft 457 kts 358°
2026-04-26 00:45 7.44559 -73.58284 35957 ft 457 kts 358°
2026-04-26 00:45 7.51957 -73.58642 35957 ft 457 kts 358°
2026-04-26 00:46 7.58324 -73.58952 35955 ft 457 kts 358°
2026-04-26 00:46 7.64680 -73.59262 35955 ft 457 kts 358°
2026-04-26 00:47 7.71017 -73.59558 35942 ft 458 kts 358°
2026-04-26 00:47 7.77403 -73.59852 35937 ft 459 kts 358°
2026-04-26 00:48 7.83801 -73.60160 35941 ft 459 kts 358°
2026-04-26 00:48 7.90149 -73.60466 35943 ft 459 kts 358°
2026-04-26 00:49 7.96555 -73.60784 35942 ft 460 kts 358°
2026-04-26 00:49 8.02964 -73.61094 35951 ft 460 kts 358°
2026-04-26 00:50 8.09322 -73.61395 35942 ft 461 kts 358°
2026-04-26 00:50 8.15731 -73.61699 35950 ft 461 kts 358°
2026-04-26 00:51 8.22021 -73.62873 35955 ft 461 kts 339°
2026-04-26 00:51 8.27974 -73.65310 35941 ft 461 kts 338°
2026-04-26 00:52 8.32911 -73.67341 35948 ft 460 kts 338°
2026-04-26 00:52 8.39828 -73.70168 35951 ft 460 kts 338°
2026-04-26 00:53 8.44774 -73.72187 35943 ft 461 kts 338°
2026-04-26 00:53 8.50732 -73.74627 35944 ft 461 kts 337°
2026-04-26 00:54 8.56647 -73.77057 35938 ft 461 kts 337°
2026-04-26 00:54 8.62610 -73.79501 35929 ft 462 kts 337°
2026-04-26 00:55 8.68571 -73.81943 35929 ft 462 kts 337°
2026-04-26 00:55 8.74504 -73.84380 35934 ft 462 kts 337°
2026-04-26 00:56 8.80465 -73.86822 35932 ft 462 kts 337°
2026-04-26 00:56 8.86434 -73.89281 35929 ft 462 kts 337°
2026-04-26 00:57 8.92395 -73.91733 35928 ft 462 kts 337°
2026-04-26 00:57 8.98337 -73.94172 35933 ft 462 kts 337°
2026-04-26 00:58 9.04318 -73.96632 35934 ft 463 kts 336°
2026-04-26 00:58 9.10156 -73.99365 35672 ft 463 kts 333°
2026-04-26 00:59 9.13047 -74.00862 34938 ft 466 kts 332°
2026-04-26 00:59 9.15899 -74.02382 34406 ft 463 kts 331°
2026-04-26 00:59 9.18744 -74.03898 33838 ft 460 kts 332°
2026-04-26 00:59 9.21544 -74.05370 33255 ft 457 kts 332°
2026-04-26 01:00 9.24374 -74.06828 32714 ft 453 kts 332°
2026-04-26 01:00 9.27182 -74.08251 32179 ft 449 kts 333°
2026-04-26 01:00 9.29972 -74.09653 31645 ft 446 kts 333°
2026-04-26 01:00 9.32742 -74.11043 31117 ft 442 kts 332°
2026-04-26 01:01 9.35487 -74.12429 30602 ft 439 kts 332°
2026-04-26 01:01 9.38210 -74.13810 30094 ft 435 kts 332°
2026-04-26 01:01 9.40905 -74.15177 29598 ft 430 kts 332°
2026-04-26 01:01 9.43539 -74.16515 29065 ft 426 kts 332°
2026-04-26 01:02 9.46163 -74.17849 28610 ft 421 kts 332°
2026-04-26 01:02 9.48776 -74.19177 28142 ft 416 kts 332°
2026-04-26 01:02 9.51351 -74.20486 27686 ft 412 kts 332°
2026-04-26 01:02 9.53900 -74.21786 27219 ft 408 kts 332°
2026-04-26 01:03 9.56422 -74.23071 26762 ft 404 kts 332°
2026-04-26 01:03 9.58932 -74.24345 26300 ft 402 kts 333°
2026-04-26 01:03 9.61424 -74.25608 25827 ft 400 kts 333°
2026-04-26 01:03 9.63911 -74.26868 25361 ft 398 kts 333°
2026-04-26 01:04 9.66380 -74.28123 24868 ft 397 kts 333°
2026-04-26 01:04 9.68816 -74.29367 24381 ft 396 kts 333°
2026-04-26 01:04 9.71304 -74.30638 23880 ft 395 kts 333°
2026-04-26 01:04 9.73729 -74.31875 23357 ft 395 kts 333°
2026-04-26 01:05 9.76180 -74.33122 22895 ft 391 kts 333°
2026-04-26 01:05 9.78605 -74.34356 22450 ft 387 kts 333°
2026-04-26 01:05 9.81015 -74.35582 21944 ft 385 kts 333°
2026-04-26 01:05 9.83400 -74.36797 21435 ft 384 kts 333°
2026-04-26 01:06 9.85768 -74.38005 20991 ft 381 kts 333°
2026-04-26 01:06 9.88129 -74.39210 20560 ft 378 kts 333°
2026-04-26 01:06 9.90468 -74.40401 20162 ft 374 kts 333°
2026-04-26 01:06 9.92768 -74.41569 19736 ft 372 kts 333°
2026-04-26 01:07 9.95082 -74.42747 19242 ft 371 kts 333°
2026-04-26 01:07 9.97375 -74.43918 18926 ft 366 kts 333°
2026-04-26 01:07 9.99645 -74.45078 18500 ft 364 kts 333°
2026-04-26 01:07 10.01902 -74.46228 18081 ft 362 kts 333°
2026-04-26 01:08 10.04155 -74.47377 17626 ft 360 kts 332°
2026-04-26 01:08 10.06386 -74.48513 17201 ft 357 kts 333°
2026-04-26 01:08 10.08604 -74.49643 16783 ft 355 kts 333°
2026-04-26 01:08 10.10784 -74.50754 16377 ft 353 kts 333°
2026-04-26 01:09 10.12968 -74.51865 15979 ft 350 kts 333°
2026-04-26 01:09 10.15137 -74.52976 15510 ft 350 kts 331°
2026-04-26 01:09 10.17184 -74.54258 15243 ft 343 kts 327°
2026-04-26 01:09 10.19201 -74.55558 14827 ft 343 kts 327°
2026-04-26 01:10 10.21207 -74.56838 14290 ft 338 kts 327°
2026-04-26 01:10 10.23162 -74.58084 13868 ft 326 kts 327°
2026-04-26 01:10 10.25072 -74.59302 13463 ft 324 kts 327°
2026-04-26 01:10 10.26978 -74.60519 13064 ft 322 kts 327°
2026-04-26 01:11 10.28888 -74.61741 12674 ft 321 kts 327°
2026-04-26 01:11 10.30748 -74.62934 12282 ft 319 kts 327°
2026-04-26 01:11 10.32617 -74.64134 11899 ft 318 kts 327°
2026-04-26 01:11 10.34481 -74.65330 11507 ft 316 kts 327°
2026-04-26 01:12 10.36336 -74.66521 11120 ft 315 kts 327°
2026-04-26 01:12 10.38180 -74.67706 10727 ft 314 kts 327°
2026-04-26 01:12 10.40029 -74.68888 10385 ft 311 kts 327°
2026-04-26 01:12 10.41823 -74.70036 10243 ft 300 kts 327°
2026-04-26 01:13 10.43583 -74.71164 9891 ft 296 kts 326°
2026-04-26 01:13 10.45318 -74.72280 9228 ft 293 kts 326°
2026-04-26 01:13 10.47021 -74.73376 8708 ft 285 kts 327°
2026-04-26 01:13 10.48666 -74.74428 8314 ft 274 kts 327°
2026-04-26 01:14 10.50272 -74.75453 7927 ft 272 kts 327°
2026-04-26 01:14 10.51875 -74.76479 7533 ft 272 kts 327°
2026-04-26 01:14 10.53478 -74.77509 7133 ft 272 kts 327°
2026-04-26 01:14 10.55081 -74.78541 6731 ft 273 kts 327°
2026-04-26 01:15 10.56683 -74.79573 6324 ft 274 kts 327°
2026-04-26 01:15 10.58298 -74.80611 5877 ft 274 kts 327°
2026-04-26 01:15 10.59909 -74.81646 5454 ft 274 kts 327°
2026-04-26 01:15 10.61523 -74.82684 5031 ft 274 kts 327°
2026-04-26 01:16 10.63134 -74.83724 4598 ft 274 kts 327°
2026-04-26 01:16 10.64744 -74.84759 4260 ft 270 kts 328°
2026-04-26 01:16 10.66267 -74.85736 4197 ft 254 kts 328°
2026-04-26 01:16 10.67724 -74.86672 4108 ft 242 kts 327°
2026-04-26 01:17 10.69111 -74.87566 4004 ft 231 kts 327°
2026-04-26 01:17 10.70440 -74.88420 3900 ft 220 kts 327°
2026-04-26 01:17 10.71707 -74.89233 3809 ft 211 kts 327°
2026-04-26 01:17 10.72968 -74.89972 3693 ft 209 kts 340°
2026-04-26 01:18 10.74397 -74.90117 3391 ft 208 kts 11°
2026-04-26 01:18 10.75662 -74.89488 3107 ft 202 kts 39°
2026-04-26 01:18 10.76721 -74.88581 2847 ft 197 kts 40°
2026-04-26 01:18 10.77750 -74.87694 2604 ft 192 kts 40°
2026-04-26 01:19 10.78746 -74.86840 2357 ft 182 kts 39°
2026-04-26 01:19 10.79691 -74.86030 2124 ft 171 kts 38°
2026-04-26 01:19 10.80570 -74.85277 1915 ft 159 kts 39°
2026-04-26 01:19 10.81386 -74.84578 1723 ft 147 kts 37°
2026-04-26 01:20 10.82162 -74.83914 1534 ft 145 kts 38°
2026-04-26 01:20 10.82927 -74.83258 1345 ft 142 kts 38°
2026-04-26 01:20 10.83682 -74.82611 1157 ft 142 kts 38°
2026-04-26 01:20 10.84441 -74.81962 978 ft 141 kts 39°
2026-04-26 01:21 10.85190 -74.81319 801 ft 141 kts 36°
2026-04-26 01:21 10.85939 -74.80678 648 ft 140 kts 37°
2026-04-26 01:21 10.86682 -74.80046 467 ft 139 kts 39°
2026-04-26 01:21 10.87426 -74.79407 281 ft 140 kts 38°
2026-04-26 01:22 10.88162 -74.78776 121 ft 133 kts 38°
2026-04-26 01:22 10.88780 -74.78248 101 ft 85 kts 41°
2026-04-26 01:22 10.89042 -74.78021 94 ft 36 kts 40°
2026-04-26 01:22 10.89227 -74.77861 93 ft 34 kts 40°
2026-04-26 01:23 10.89364 -74.77729 86 ft 18 kts 63°
2026-04-26 01:23 10.89375 -74.77596 85 ft 17 kts 107°
2026-04-26 01:23 10.89289 -74.77535 84 ft 14 kts 160°
2026-04-26 01:23 10.89210 -74.77507 87 ft 10 kts 161°
2026-04-26 01:24 10.89160 -74.77493 93 ft 5 kts 174°
2026-04-26 01:24 10.89129 -74.77498 92 ft 9 kts 198°
2026-04-26 01:24 10.89065 -74.77545 96 ft 10 kts 220°
2026-04-26 01:24 10.89021 -74.77582 97 ft 10 kts 220°
2026-04-26 01:25 10.88928 -74.77660 96 ft 20 kts 220°
2026-04-26 01:25 10.88854 -74.77728 96 ft 20 kts 220°
2026-04-26 01:25 10.88756 -74.77809 96 ft 8 kts 219°
2026-04-26 01:25 10.88742 -74.77816 96 ft 3 kts 199°
2026-04-26 01:26 10.88715 -74.77798 99 ft 5 kts 139°
2026-04-26 01:26 10.88686 -74.77797 96 ft 3 kts 203°
2026-04-26 01:26 10.88669 -74.77802 97 ft 1 kts 180°
2026-04-26 01:26 10.88651 -74.77786 96 ft 7 kts 129°
2026-04-26 01:27 10.88642 -74.77774 99 ft 2 kts 128°
2026-04-26 01:27 10.88633 -74.77763 96 ft 0 kts 129°